Home > Time Zones > World Clock > Weather > Italy > Bari > Past weeks

Flag for Italy Weather past 2 weeks in Bari, Italy

Now
81 °F

Passing clouds.


Feels Like: 85 °F
Forecast: 68 / 82 °F
Wind: 7 mph from Northeast

Location: Bari / Palese Macchie

Current Time: Aug 28, 2014 at 11:10:14 AM

Latest Report: Aug 28, 2014 at 10:20 AM


Visibility: N/A

Pressure: 29.92 "Hg

Humidity: 74%

Dew point: 72 °F

Location of BariLocation

Historic Weather in Bari — Graph

°F

Bari temperature yesterday

Maximum temperature yesterday: 90 °F (at 5:50 PM)
Minimum temperature yesterday: 70 °F (at 1:20 AM)
Average temperature yesterday: 79 °F

Past Weeks' High & Low Weather Summary

 TemperatureHumidityPressure
High100 °F (Aug 13, 4:50 PM)94% (Aug 17, 5:20 AM)30.01 "Hg (Aug 17, 5:20 AM)
Low61 °F (Aug 18, 5:20 AM)20% (Aug 13, 4:50 PM)29.74 "Hg (Aug 13, 4:50 PM)
Average77 °F58%29.92 "Hg
* Reported Aug 13 9:20 AM — Aug 28 9:50 AM, Bari, Weather by CustomWeather, © 2014

Note: Actual official high and low records may vary slightly from our data, if they occured in-between our weather recording intervals... More about our weather records

Advertising

Bari weather history for previous 24 hours

 ConditionsComfort  
Time TempWeatherWind HumidityBarometerVisibility
9:50 AM
Aug 28
79 °FPassing clouds.7 mph74%29.92 "HgN/A
9:20 AM79 °FPassing clouds.7 mph74%29.92 "HgN/A
8:50 AM79 °FPassing clouds.5 mph70%29.92 "HgN/A
8:20 AM77 °FPassing clouds.5 mph57%29.92 "HgN/A
7:50 AM70 °FSunny.6 mph64%29.89 "Hg10 mi
7:20 AM70 °FSunny.3 mph64%29.89 "Hg10 mi
6:50 AM70 °FClear.6 mph64%29.89 "Hg10 mi
6:20 AM70 °FClear.6 mph64%29.89 "Hg10 mi
5:50 AM72 °FClear.6 mph57%29.89 "Hg10 mi
5:20 AM72 °FClear.6 mph57%29.89 "Hg10 mi
4:50 AM72 °FClear.7 mph73%29.89 "Hg10 mi
2:20 AM72 °FClear.7 mph73%29.89 "Hg10 mi
1:50 AM72 °FClear.5 mph73%29.89 "Hg10 mi
1:20 AM72 °FClear.5 mph78%29.89 "Hg10 mi
12:50 AM72 °FClear.7 mph78%29.89 "Hg10 mi
12:20 AM72 °FClear.5 mph83%29.89 "Hg10 mi
11:50 PM
Aug 27
73 °FClear.5 mph78%29.89 "Hg10 mi
11:20 PM73 °FPassing clouds.5 mph83%29.89 "HgN/A
10:50 PM73 °FClear.3 mph83%29.89 "Hg10 mi
10:20 PM73 °FClear.2 mph83%29.86 "Hg10 mi
9:50 PM75 °FClear.2 mph78%29.86 "Hg10 mi
9:20 PM77 °FClear.2 mph74%29.86 "Hg10 mi
8:50 PM77 °FClear.5 mph74%29.86 "Hg10 mi
8:20 PM79 °FSunny.7 mph74%29.83 "Hg10 mi
7:50 PM79 °FSunny.7 mph74%29.83 "Hg10 mi
7:20 PM81 °FSunny.12 mph66%29.83 "Hg10 mi
6:50 PM82 °FSunny.12 mph48%29.83 "Hg10 mi
6:20 PM88 °FSunny.8 mph29%29.80 "Hg10 mi
5:50 PM90 °FPassing clouds.8 mph29%29.80 "HgN/A
4:20 PM70 °FPassing clouds.10 mph57%29.83 "HgN/A
3:50 PM88 °FPassing clouds.12 mph35%29.83 "HgN/A
3:20 PM88 °FSunny.12 mph33%29.83 "Hg10 mi
2:50 PM88 °FPassing clouds.9 mph38%29.83 "HgN/A
2:20 PM88 °FSunny.10 mph35%29.83 "Hg10 mi
1:50 PM88 °FPassing clouds.10 mph31%29.83 "HgN/A
1:20 PM88 °FPassing clouds.8 mph31%29.86 "HgN/A
12:50 PM88 °FPassing clouds.9 mph33%29.86 "HgN/A
12:20 PM88 °FPassing clouds.10 mph27%29.86 "HgN/A
11:50 AM88 °FPassing clouds.12 mph29%29.86 "HgN/A
11:20 AM88 °FSunny.10 mph29%29.86 "Hg10 mi
Weather by CustomWeather, © 2014

See weather overviewHow to use our weather pages